Location: Ch�teau-Arnoux
(44.0814°N, 6.0027°E)
Time: 09:50:25
(UTC+00:00)

NOSS 3-3 (A) - Pass Details

Date: 15 November 2019
Orbit: 848 x 1364 km, 63.4° (Epoch: 30 November)

Event Time Altitude Azimuth Distance (km) Brightness Sun altitude
Exits shadow 04:28:32 13° 211° (SSW) 2,316 5.7 -21.9°
Maximum altitude 04:33:48 82° 124° (SE) 956 4.0 -20.9°
Drops below altitude 10° 04:40:24 10° 39° (NE) 2,835 6.8 -19.8°
Sets 04:43:11 0° 38° (NE) 3,871 7.6 -19.3°
